Weather History for KEMP - October, 2012

Change the Weather History Date:

Tuesday, October 16, 2012

  Actual Average Record
Temperature  
Mean Temperature 71 °F 57 °F  
Max Temperature 81 °F 69 °F 86 °F (2010)
Min Temperature 61 °F 45 °F 33 °F (2001)
Degree Days  
Heating Degree Days 0 9  
Month to date heating degree days 140 108  
Since 1 July heating degree days 180 158  
Cooling Degree Days 6 1  
Month to date cooling degree days 10 24  
Year to date cooling degree days 1875 1397  
Growing Degree Days 20 (Base 50)    
Moisture  
Dew Point 51 °F    
Average Humidity 53    
Maximum Humidity 67    
Minimum Humidity 39    
Precipitation  
Precipitation 0.00 in 0.11 in 0.73 in (1998)
Month to date precipitation 1.68 1.53  
Year to date precipitation 20.30 31.53  
Sea Level Pressure  
Sea Level Pressure 29.63 in    
Wind  
Wind Speed 17 mph (SSW)    
Max Wind Speed 25 mph    
Max Gust Speed 31 mph    
Visibility 10 miles    
Events      
T = Trace of Precipitation, MM = Missing Value Source: NWS Daily Summary

Daily Weather History Graph

Daily Weather History Graph

Search for Another Location

Airport or City:

Trip Planner

Search our weather history database for the weather conditions in past years. The results will help you decide how hot, cold, wet, or windy it might be!

Date:

Astronomy

Oct. 16, 2012 Rise Set
Actual Time 7:35 AM CDT 6:44 PM CDT
Civil Twilight 7:08 AM CDT 7:11 PM CDT
Nautical Twilight 6:37 AM CDT 7:42 PM CDT
Astronomical Twilight 6:07 AM CDT 8:12 PM CDT
Moon 8:57 AM CDT (10/16) 7:32 PM CDT (10/16)
Length of Visible Light 12h 02m
Length of Day
11h 09m
New Moon, 2% of the Moon is Illuminated
Oct 16
New Moon
Oct 21
First Quarter
Oct 29
Full
Nov 6
Last Quarter
Nov 13
New

Hourly Weather History & Observations

Time (CDT) Temp. Heat Index Dew Point Humidity Pressure Visibility Wind Dir Wind Speed Gust Speed Precip Events Conditions
12:53 AM 64.9 °F - 48.9 °F 56% 29.77 in 10.0 mi South 15.0 mph - N/A   Clear
1:53 AM 64.9 °F - 48.9 °F 56% 29.75 in 10.0 mi South 15.0 mph - N/A   Clear
2:53 AM 64.0 °F - 48.9 °F 58% 29.74 in 10.0 mi South 18.4 mph - N/A   Clear
3:53 AM 63.0 °F - 48.9 °F 60% 29.72 in 10.0 mi South 15.0 mph - N/A   Clear
4:53 AM 63.0 °F - 48.9 °F 60% 29.71 in 10.0 mi SSW 17.3 mph - N/A   Clear
5:53 AM 62.1 °F - 48.0 °F 60% 29.71 in 10.0 mi South 17.3 mph - N/A   Clear
7:53 AM 61.0 °F - 48.0 °F 62% 29.71 in 10.0 mi South 17.3 mph - N/A   Clear
8:53 AM 64.0 °F - 48.0 °F 56% 29.70 in 10.0 mi SSW 18.4 mph - N/A   Clear
9:53 AM 70.0 °F - 48.9 °F 47% 29.70 in 10.0 mi SSW 18.4 mph 27.6 mph N/A   Clear
10:53 AM 73.0 °F - 50.0 °F 44% 29.70 in 10.0 mi SSW 21.9 mph 27.6 mph N/A   Clear
11:53 AM 75.9 °F - 51.1 °F 42% 29.70 in 10.0 mi SW 23.0 mph 29.9 mph N/A   Clear
12:53 PM 78.1 °F - 52.0 °F 40% 29.65 in 10.0 mi SW 20.7 mph 26.5 mph N/A   Clear
1:53 PM 79.0 °F - 54.0 °F 42% 29.62 in 10.0 mi SW 20.7 mph 28.8 mph N/A   Clear
2:53 PM 79.0 °F - 54.0 °F 42% 29.59 in 10.0 mi SSW 21.9 mph 29.9 mph N/A   Clear
3:53 PM 80.1 °F 80.0 °F 54.0 °F 40% 29.56 in 10.0 mi SSW 13.8 mph 26.5 mph N/A   Clear
4:53 PM 79.0 °F - 55.0 °F 44% 29.54 in 10.0 mi SSW 15.0 mph 25.3 mph N/A   Clear
5:53 PM 77.0 °F - 53.1 °F 43% 29.53 in 10.0 mi SSW 12.7 mph - N/A   Clear
6:53 PM 70.0 °F - 52.0 °F 53% 29.52 in 10.0 mi South 10.4 mph - N/A   Clear
7:53 PM 69.1 °F - 51.1 °F 53% 29.53 in 10.0 mi South 10.4 mph - N/A   Clear
8:53 PM 68.0 °F - 52.0 °F 56% 29.53 in 10.0 mi South 13.8 mph - N/A   Clear
9:53 PM 66.0 °F - 52.0 °F 60% 29.53 in 10.0 mi South 12.7 mph - N/A   Clear
10:53 PM 66.0 °F - 52.0 °F 60% 29.51 in 10.0 mi South 16.1 mph - N/A   Clear
11:53 PM 64.9 °F - 53.1 °F 65% 29.49 in 10.0 mi South 16.1 mph - N/A   Clear